Location: Unspecified
(51.5147°N, 7.4673°E)
Time: 08:21:17
(UTC+01:00)

Explorer 7 - Pass Details

Date: 25 February 2026
Orbit: 430 x 542 km, 50.2° (Epoch: 7 March)

Event Time Altitude Azimuth Distance (km) Brightness Sun altitude
Rises 12:50:33 0° 218° (SW) 2,391 10.8 29.5°
Reaches altitude 10° 12:52:54 10° 203° (SSW) 1,534 10.4 29.5°
Maximum altitude 12:55:42 23° 149° (SSE) 968 9.3 29.4°
Drops below altitude 10° 12:58:34 10° 94° (E) 1,569 9.2 29.4°
Sets 13:00:59 0° 80° (E) 2,461 10.0 29.4°
